Overview Statistics Trail Chart Weather Telemetry Raw packets
 

This is the latest recevied weather packets stored in our database for station/object EA8BQU-10. If no packets are shown the sender has not sent any weather packets the latest 10 day(s).

<< 21 22 23 24 25 26 27 >>
Time Temp. Humidity Pressure Rain* Wind** Luminosity Snow
1788185537 26.67° C 100% 1019 hPa - - - -
1788184637 26.67° C 100% 1019.2 hPa - - - -
1788183736 26.67° C 100% 1019.1 hPa - - - -
1788182836 26.11° C 100% 1019.3 hPa - - - -
1788181936 26.11° C 100% 1019.5 hPa - - - -
1788181036 26.11° C 100% 1019.5 hPa - - - -
1788180144 25.56° C 100% 1019.6 hPa - - - -
1788179236 26.11° C 100% 1019.7 hPa - - - -
1788178336 25° C 100% 1020.1 hPa - - - -
1788177436 25° C 100% 1020 hPa - - - -
1788176536 25° C 100% 1020.4 hPa - - - -
1788175635 25.56° C 100% 1020.3 hPa - - - -
1788174751 25° C 100% 1020.3 hPa - - - -
1788173851 25.56° C 100% 1020.2 hPa - - - -
1788173148 25° C 100% 1020.2 hPa - - - -
1788172951 25° C 100% 1020.2 hPa - - - -
1788172045 25° C 100% 1020 hPa - - - -
1788171145 25° C 100% 1019.9 hPa - - - -
1788170245 25° C 100% 1019.8 hPa - - - -
1788169360 24.44° C 100% 1019.7 hPa - - - -
1788168445 24.44° C 100% 1019.4 hPa - - - -
1788167545 24.44° C 100% 1019.5 hPa - - - -
1788166641 24.44° C 100% 1019.2 hPa - - - -
1788165741 23.89° C 100% 1019.2 hPa - - - -
1788164837 24.44° C 100% 1019.1 hPa - - - -

* Rain since midnight (hover to see other rain measurements)
** Current wind speed in m/s (hover to see current wind gust speed)